Weather History for Fort Wayne, IN

Change the Weather History Date:

Wednesday, March 12, 2014

  Actual Average Record
Temperature  
Mean Temperature 26 °F 37 °F  
Max Temperature 39 °F 46 °F 74 °F (1990)
Min Temperature 13 °F 27 °F -7 °F (1948)
Degree Days  
Heating Degree Days 39 28  
Month to date heating degree days 485 364  
Since 1 July heating degree days 5738 4962  
Cooling Degree Days 0 0  
Month to date cooling degree days 0 0  
Year to date cooling degree days 0 0  
Moisture  
Dew Point 27 °F    
Average Humidity 82    
Maximum Humidity 100    
Minimum Humidity 63    
Precipitation  
Precipitation 0.91 in 0.08 in 1.23 in (1898)
Month to date precipitation 1.37 0.94  
Year to date precipitation 7.45 5.24  
Snow  
Snow 6.70 in 0.10 in 5.80 in (1950)
Month to date snowfall 11.8 2.1  
Since 1 July snowfall 72.2 30.5  
Snow Depth 5.00 in    
Sea Level Pressure  
Sea Level Pressure 29.65 in    
Wind  
Wind Speed 18 mph (North)    
Max Wind Speed 32 mph    
Max Gust Speed 42 mph    
Visibility 4 miles    
Events Fog , Rain , Snow , Thunderstorm    
T = Trace of Precipitation, MM = Missing Value Source: NWS Daily Summary

Daily Weather History Graph

Daily Weather History Graph

Search for Another Location

Airport:

Trip Planner

Search our weather history database for the weather conditions in past years. The results will help you decide how hot, cold, wet, or windy it might be!

Date:

Astronomy

Mar. 12, 2014 Rise Set
Actual Time 7:57 AM EDT 7:44 PM EDT
Civil Twilight 7:29 AM EDT 8:11 PM EDT
Nautical Twilight 6:58 AM EDT 8:43 PM EDT
Astronomical Twilight 6:26 AM EDT 9:15 PM EDT
Moon 4:12 PM EDT (3/12) 5:30 AM EDT (3/12)
Length of Visible Light 12h 41m
Length of Day
11h 46m
Waxing Gibbous, 85% of the Moon is Illuminated
Mar 12
Waxing Gibbous
Mar 16
Full
Mar 23
Last Quarter
Mar 30
New
Apr 7
First Quarter

Hourly Weather History & Observations

Time (EDT) Temp. Windchill Dew Point Humidity Pressure Visibility Wind Dir Wind Speed Gust Speed Precip Events Conditions
12:54 AM 39.0 °F 31.0 °F 34.0 °F 82% 29.63 in 10.0 mi NE 13.8 mph - N/A   Overcast
1:54 AM 37.9 °F 28.5 °F 34.0 °F 86% 29.61 in 10.0 mi NNE 17.3 mph 25.3 mph N/A   Overcast
2:13 AM 37.9 °F 28.5 °F 34.0 °F 86% 29.58 in 10.0 mi NE 17.3 mph 25.3 mph N/A   Overcast
2:54 AM 37.4 °F 27.2 °F 33.8 °F 87% 29.58 in 10.0 mi NE 19.6 mph 25.3 mph N/A   Overcast
3:08 AM 37.9 °F 28.2 °F 34.0 °F 86% 29.56 in 10.0 mi NE 18.4 mph 26.5 mph N/A   Overcast
3:25 AM 37.9 °F 27.3 °F 34.0 °F 86% 29.53 in 10.0 mi NE 21.9 mph 27.6 mph N/A   Overcast
3:54 AM 37.9 °F 28.2 °F 34.0 °F 86% 29.52 in 10.0 mi ENE 18.4 mph 26.5 mph N/A   Overcast
4:07 AM 37.9 °F 28.2 °F 34.0 °F 86% 29.50 in 7.0 mi NE 18.4 mph 24.2 mph 0.00 in Rain Light Rain
4:54 AM 36.0 °F 26.7 °F 34.0 °F 93% 29.50 in 3.0 mi NE 15.0 mph - 0.08 in Rain Rain
5:06 AM 35.1 °F 24.1 °F 33.1 °F 92% 29.49 in 2.0 mi NNE 19.6 mph 26.5 mph 0.07 in Rain Heavy Rain
5:22 AM 34.0 °F 23.0 °F 32.0 °F 92% 29.49 in 1.8 mi NNE 18.4 mph 25.3 mph 0.17 in Snow Light Snow
5:37 AM 33.1 °F 23.0 °F 30.9 °F 92% 29.49 in 1.0 mi NNE 15.0 mph - 0.22 in Snow Light Snow
5:43 AM 33.1 °F 22.6 °F 30.9 °F 92% 29.49 in 0.2 mi NNE 16.1 mph 24.2 mph 0.23 in Snow Light Snow
5:54 AM 33.1 °F 23.0 °F 30.9 °F 92% 29.50 in 0.2 mi NNE 15.0 mph 25.3 mph 0.30 in Fog , Snow Heavy Snow
6:02 AM 33.1 °F 23.0 °F 32.0 °F 96% 29.48 in 0.2 mi NNE 15.0 mph - 0.02 in Fog , Snow , Thunderstorm Heavy Thunderstorms and Snow
6:10 AM 33.1 °F 22.6 °F 30.9 °F 92% 29.48 in 0.2 mi NNE 16.1 mph 24.2 mph 0.04 in Fog , Snow , Thunderstorm Heavy Thunderstorms and Snow
6:24 AM 32.0 °F 21.2 °F 30.9 °F 96% 29.49 in 0.2 mi NNE 16.1 mph 25.3 mph 0.08 in Fog , Snow Heavy Snow
6:54 AM 32.0 °F 19.2 °F 30.9 °F 96% 29.49 in 0.2 mi NNE 23.0 mph 28.8 mph 0.15 in Fog , Snow Heavy Snow
7:09 AM 32.0 °F 19.2 °F 30.9 °F 96% 29.48 in 0.2 mi NNE 23.0 mph 34.5 mph 0.03 in Fog , Snow Heavy Snow
7:40 AM 32.0 °F 20.8 °F 32.0 °F 100% 29.50 in 0.2 mi North 17.3 mph 28.8 mph 0.18 in Fog , Snow Heavy Snow
7:54 AM 30.9 °F 18.7 °F 30.9 °F 100% 29.53 in 0.2 mi North 19.6 mph 35.7 mph 0.20 in Fog , Snow Heavy Snow
8:13 AM 30.0 °F 16.0 °F 30.0 °F 100% 29.51 in 0.2 mi North 25.3 mph 38.0 mph 0.02 in Fog , Snow Heavy Snow
8:45 AM 28.9 °F 13.0 °F 28.9 °F 100% 29.49 in 0.2 mi NNE 32.2 mph 41.4 mph 0.07 in Fog , Snow Heavy Snow
8:54 AM 28.9 °F 14.8 °F 28.9 °F 100% 29.52 in 0.2 mi NNE 24.2 mph 38.0 mph 0.08 in Fog , Snow Heavy Snow
9:04 AM 28.9 °F 14.5 °F 28.9 °F 100% 29.50 in 0.2 mi NNE 25.3 mph 31.1 mph 0.01 in Fog , Snow Heavy Snow
9:15 AM 28.9 °F 15.8 °F 28.9 °F 100% 29.51 in 0.8 mi North 20.7 mph - 0.01 in Snow Light Snow
9:26 AM 28.9 °F 15.8 °F 28.9 °F 100% 29.51 in 1.0 mi NNE 20.7 mph 32.2 mph 0.01 in Snow Light Snow
9:48 AM 28.4 °F 15.1 °F 28.4 °F 100% 29.54 in 0.8 mi North 20.7 mph 31.1 mph 0.02 in Snow Light Snow
9:54 AM 28.9 °F 15.1 °F 28.9 °F 100% 29.57 in 0.8 mi North 23.0 mph 33.4 mph 0.02 in Snow Light Snow
10:17 AM 28.9 °F 15.8 °F 28.9 °F 100% 29.57 in 0.2 mi North 20.7 mph - 0.01 in Fog , Snow Heavy Snow
10:54 AM 28.9 °F 16.9 °F 28.9 °F 100% 29.61 in 0.5 mi North 17.3 mph - 0.04 in Fog , Snow Snow
11:18 AM 28.9 °F 16.5 °F 28.9 °F 100% 29.61 in 0.5 mi North 18.4 mph - 0.01 in Fog , Snow Snow
11:45 AM 28.9 °F 16.5 °F 28.9 °F 100% 29.62 in 0.5 mi NNW 18.4 mph - 0.01 in Fog , Snow Snow
11:54 AM 28.9 °F 15.8 °F 28.9 °F 100% 29.65 in 0.5 mi NNW 20.7 mph 27.6 mph 0.02 in Fog , Snow Snow
12:09 PM 28.9 °F 15.1 °F 28.9 °F 100% 29.63 in 0.2 mi NNW 23.0 mph - 0.00 in Fog , Snow Snow
12:33 PM 28.9 °F 16.1 °F 28.9 °F 100% 29.64 in 0.5 mi NNW 19.6 mph - 0.01 in Fog , Snow Snow
12:54 PM 28.9 °F 15.8 °F 28.9 °F 100% 29.68 in 0.8 mi NNW 20.7 mph 31.1 mph 0.02 in Snow Light Snow
1:11 PM 28.9 °F 14.5 °F 28.9 °F 100% 29.67 in 1.0 mi NNW 25.3 mph 32.2 mph 0.00 in Snow Light Snow
1:29 PM 28.9 °F 15.8 °F 28.0 °F 96% 29.68 in 2.0 mi NNW 20.7 mph 29.9 mph 0.00 in Snow Light Snow
1:46 PM 28.9 °F 17.3 °F 27.0 °F 92% 29.69 in 1.0 mi North 16.1 mph 28.8 mph 0.00 in Snow Light Snow
1:54 PM 28.9 °F 17.3 °F 27.0 °F 92% 29.73 in 1.0 mi NNW 16.1 mph - 0.00 in Snow Light Snow
2:21 PM 28.9 °F 17.3 °F 27.0 °F 92% 29.72 in 3.0 mi North 16.1 mph - 0.00 in Snow Light Snow
2:54 PM 30.9 °F 19.1 °F 26.1 °F 82% 29.76 in 10.0 mi North 18.4 mph 29.9 mph 0.00 in   Mostly Cloudy
3:22 PM 30.9 °F 18.4 °F 24.1 °F 76% 29.76 in 10.0 mi NNW 20.7 mph 34.5 mph N/A   Mostly Cloudy
3:54 PM 30.9 °F 18.4 °F 23.0 °F 72% 29.80 in 10.0 mi NNW 20.7 mph 27.6 mph N/A   Mostly Cloudy
4:54 PM 30.2 °F 19.8 °F 19.4 °F 64% 29.83 in 10.0 mi NNW 13.8 mph - N/A   Mostly Cloudy
5:26 PM 28.9 °F 18.6 °F 21.0 °F 72% 29.83 in 8.0 mi WNW 12.7 mph 26.5 mph 0.00 in Snow Light Snow
5:54 PM 28.0 °F 17.5 °F 19.9 °F 72% 29.88 in 9.0 mi WNW 12.7 mph 21.9 mph 0.00 in Snow Light Snow
6:54 PM 25.0 °F 12.6 °F 17.1 °F 72% 29.93 in 10.0 mi WNW 15.0 mph 23.0 mph 0.00 in   Mostly Cloudy
7:54 PM 21.0 °F 7.6 °F 12.9 °F 71% 29.97 in 10.0 mi WNW 15.0 mph - N/A   Scattered Clouds
8:54 PM 18.0 °F 4.2 °F 10.9 °F 74% 30.01 in 10.0 mi WNW 13.8 mph - N/A   Mostly Cloudy
9:54 PM 17.1 °F 6.6 °F 10.0 °F 74% 30.04 in 10.0 mi WNW 8.1 mph - N/A   Overcast
10:54 PM 16.0 °F 3.6 °F 10.0 °F 77% 30.06 in 10.0 mi NW 10.4 mph - N/A   Overcast
11:54 PM 14.0 °F 2.9 °F 8.1 °F 77% 30.06 in 10.0 mi NW 8.1 mph - N/A   Partly Cloudy